TIME,�g�[�m���b�g���n,�t���O,�����m���b�g���n,�t���O,�g�[�mMJ�n,�t���O,�����mMJ�n,�t���O
2004/2/1 0:00,0,0,0,0,0,0,0,0
2004/2/1 0:15,0,0,0,0,0,0,0,0
2004/2/1 0:30,0,0,0,0,0,0,0,0
2004/2/1 0:45,0,0,0,0,0,0,0,0
2004/2/1 1:00,0,0,0,0,0,0,0,0
2004/2/1 1:15,0,0,0,0,0,0,0,0
2004/2/1 1:30,0,0,0,0,0,0,0,0
2004/2/1 1:45,0,0,0,0,0,0,0,0
2004/2/1 2:00,0,0,0,0,0,0,0,0
2004/2/1 2:15,0,0,0,0,0,0,0,0
2004/2/1 2:30,0,0,0,0,0,0,0,0
2004/2/1 2:45,0,0,0,0,0,0,0,0
2004/2/1 3:00,0,0,0,0,0,0,0,0
2004/2/1 3:15,0,0,0,0,0,0,0,0
2004/2/1 3:30,0,0,0,0,0,0,0,0
2004/2/1 3:45,0,0,0,0,0,0,0,0
2004/2/1 4:00,0,0,0,0,0,0,0,0
2004/2/1 4:15,0,0,0,0,0,0,0,0
2004/2/1 4:30,0.00002254,0,0,0,2.81,0,0,0
2004/2/1 4:45,0.00025599,0,0,0,31.39,0,0,0
2004/2/1 5:00,0.00025921,0,0,0,31.77,0,0,0
2004/2/1 5:15,0.00026243,0,0,0,32.19,0,0,0
2004/2/1 5:30,0.00026404,0,0,0,32.31,0,0,0
2004/2/1 5:45,0.00026243,0,0,0,32.17,0,0,0
2004/2/1 6:00,0.00025438,0,0,0,31.15,0,0,0
2004/2/1 6:15,0.00026565,0,0,0,32.57,0,0,0
2004/2/1 6:30,0.00025277,0,0,0,31.01,0,0,0
2004/2/1 6:45,0.00026404,0,0,0,32.21,0,0,0
2004/2/1 7:00,0.0002576,0,0,0,31.51,0,0,0
2004/2/1 7:15,0.00026726,0,0,0,32.64,0,0,0
2004/2/1 7:30,0.00026565,0,0,0,32.57,0,0,0
2004/2/1 7:45,0.00025599,0,0,0,31.25,0,0,0
2004/2/1 8:00,0.00013363,0,0,0,16.28,0,0,0
2004/2/1 8:15,0.00001127,0,0,0,1.3,0,0,0
2004/2/1 8:30,0,0,0,0,0,0,0,0
2004/2/1 8:45,0,0,0,0,0,0,0,0
2004/2/1 9:00,0,0,0,0,0,0,0,0
2004/2/1 9:15,0,0,0.00000322,0,0,0,0.33,0
2004/2/1 9:30,0,0,0.00012075,0,0,0,14.7,0
2004/2/1 9:45,0,0,0.00004186,0,0,0,5.06,0
2004/2/1 10:00,0,0,0.00004186,0,0,0,5.18,0
2004/2/1 10:15,0,0,0.00001932,0,0,0,2.36,0
2004/2/1 10:30,0,0,0,0,0,0,0,0
2004/2/1 10:45,0,0,0,0,0,0,0,0
2004/2/1 11:00,0,0,0,0,0,0,0,0
2004/2/1 11:15,0,0,0,0,0,0,0,0
2004/2/1 11:30,0,0,0,0,0,0,0,0
2004/2/1 11:45,0,0,0,0,0,0,0,0
2004/2/1 12:00,0,0,0,0,0,0,0,0
2004/2/1 12:15,0,0,0,0,0,0,0,0
2004/2/1 12:30,0,0,0,0,0,0,0,0
2004/2/1 12:45,0,0,0,0,0,0,0,0
2004/2/1 13:00,0,0,0,0,0,0,0,0
2004/2/1 13:15,0,0,0,0,0,0,0,0
2004/2/1 13:30,0,0,0,0,0,0,0,0
2004/2/1 13:45,0,0,0,0,0,0,0,0
2004/2/1 14:00,0,0,0,0,0,0,0,0
2004/2/1 14:15,0,0,0,0,0,0,0,0
2004/2/1 14:30,0,0,0,0,0,0,0,0
2004/2/1 14:45,0,0,0,0,0,0,0,0
2004/2/1 15:00,0,0,0,0,0,0,0,0
2004/2/1 15:15,0,0,0,0,0,0,0,0
2004/2/1 15:30,0,0,0,0,0,0,0,0
2004/2/1 15:45,0,0,0,0,0,0,0,0
2004/2/1 16:00,0,0,0,0,0,0,0,0
2004/2/1 16:15,0,0,0,0,0,0,0,0
2004/2/1 16:30,0.00002415,0,0,0,2.86,0,0,0
2004/2/1 16:45,0.00025277,0,0.00008533,0,30.89,0,10.38,0
2004/2/1 17:00,0.00025599,0,0.0000161,0,31.27,0,1.94,0
2004/2/1 17:15,0.00026243,0,0.00002898,0,32.05,0,3.57,0
2004/2/1 17:30,0.00025438,0,0.00004025,0,31.17,0,5.01,0
2004/2/1 17:45,0.0002576,0,0,0,31.46,0,0,0
2004/2/1 18:00,0.0001771,0,0,0,21.58,0,0,0
2004/2/1 18:15,0,0,0.0000483,0,0,0,5.96,0
2004/2/1 18:30,0.00004347,0,0,0,5.37,0,0,0
2004/2/1 18:45,0.00019642,0,0,0,24.01,0,0,0
2004/2/1 19:00,0,0,0.00012236,0,0,0,15.01,0
2004/2/1 19:15,0,0,0.00000161,0,0,0,0.19,0
2004/2/1 19:30,0,0,0,0,0,0,0,0
2004/2/1 19:45,0.00004508,0,0.0004669,0,5.46,0,57.17,0
2004/2/1 20:00,0.00019964,0,0.0006118,0,24.46,0,74.8,0
2004/2/1 20:15,0,0,0.00028658,0,0,0,35.12,0
2004/2/1 20:30,0,0,0.00011431,0,0,0,13.92,0
2004/2/1 20:45,0,0,0.0000483,0,0,0,5.89,0
2004/2/1 21:00,0.00005796,0,0.00026404,0,7.02,0,32.36,0
2004/2/1 21:15,0,0,0,0,0,0,0,0
2004/2/1 21:30,0,0,0,0,0,0,0,0
2004/2/1 21:45,0,0,0,0,0,0,0,0
2004/2/1 22:00,0,0,0,0,0,0,0,0
2004/2/1 22:15,0,0,0,0,0,0,0,0
2004/2/1 22:30,0,0,0,0,0,0,0,0
2004/2/1 22:45,0,0,0,0,0,0,0,0
2004/2/1 23:00,0,0,0,0,0,0,0,0
2004/2/1 23:15,0,0,0,0,0,0,0,0
2004/2/1 23:30,0,0,0,0,0,0,0,0
2004/2/1 23:45,0,0,0,0,0,0,0,0
2004/2/2 0:00,0,0,0,0,0,0,0,0
2004/2/2 0:15,0,0,0,0,0,0,0,0
2004/2/2 0:30,0,0,0,0,0,0,0,0
2004/2/2 0:45,0,0,0,0,0,0,0,0
2004/2/2 1:00,0,0,0,0,0,0,0,0
2004/2/2 1:15,0,0,0,0,0,0,0,0
2004/2/2 1:30,0,0,0,0,0,0,0,0
2004/2/2 1:45,0,0,0,0,0,0,0,0
2004/2/2 2:00,0,0,0,0,0,0,0,0
2004/2/2 2:15,0,0,0,0,0,0,0,0
2004/2/2 2:30,0,0,0,0,0,0,0,0
2004/2/2 2:45,0,0,0,0,0,0,0,0
2004/2/2 3:00,0,0,0,0,0,0,0,0
2004/2/2 3:15,0,0,0,0,0,0,0,0
2004/2/2 3:30,0,0,0,0,0,0,0,0
2004/2/2 3:45,0,0,0,0,0,0,0,0
2004/2/2 4:00,0,0,0,0,0,0,0,0
2004/2/2 4:15,0,0,0,0,0,0,0,0
2004/2/2 4:30,0.00002254,0,0,0,2.77,0,0,0
2004/2/2 4:45,0.0002576,0,0,0,31.46,0,0,0
2004/2/2 5:00,0.00026404,0,0,0,32.26,0,0,0
2004/2/2 5:15,0.00026726,0,0,0,32.71,0,0,0
2004/2/2 5:30,0.00026565,0,0,0,32.59,0,0,0
2004/2/2 5:45,0.0002576,0,0,0,31.48,0,0,0
2004/2/2 6:00,0.00026082,0,0,0,31.81,0,0,0
2004/2/2 6:15,0.00026726,0,0,0,32.62,0,0,0
2004/2/2 6:30,0.00026887,0,0.0000322,0,32.92,0,3.99,0
2004/2/2 6:45,0.00026887,0,0.00005796,0,32.92,0,7.11,0
2004/2/2 7:00,0.00026082,0,0.00000805,0,31.91,0,0.9,0
2004/2/2 7:15,0.00025599,0,0,0,31.36,0,0,0
2004/2/2 7:30,0.00026565,0,0,0,32.5,0,0,0
2004/2/2 7:45,0.00026404,0,0.00000483,0,32.21,0,0.69,0
2004/2/2 8:00,0.00013041,0,0.0000322,0,16.02,0,3.95,0
2004/2/2 8:15,0,0,0.00007245,0,0,0,8.79,0
2004/2/2 8:30,0,0,0,0,0,0,0,0
2004/2/2 8:45,0,0,0,0,0,0,0,0
2004/2/2 9:00,0,0,0.00000805,0,0,0,1.02,0
2004/2/2 9:15,0,0,0,0,0,0,0,0
2004/2/2 9:30,0,0,0,0,0,0,0,0
2004/2/2 9:45,0,0,0,0,0,0,0,0
2004/2/2 10:00,0,0,0,0,0,0,0,0
2004/2/2 10:15,0,0,0,0,0,0,0,0
2004/2/2 10:30,0,0,0,0,0,0,0,0
2004/2/2 10:45,0.00003703,0,0,0,4.54,0,0,0
2004/2/2 11:00,0.00026565,0,0,0,32.45,0,0,0
2004/2/2 11:15,0.00025921,0,0.00010143,0,31.67,0,12.43,0
2004/2/2 11:30,0.00025277,0,0,0,30.84,0,0,0
2004/2/2 11:45,0.00015617,0,0.00000483,0,19.19,0,0.64,0
2004/2/2 12:00,0,0,0.00000966,0,0,0,1.16,0
2004/2/2 12:15,0.00004347,0,0,0,5.39,0,0,0
2004/2/2 12:30,0.00023828,0,0,0,29.21,0,0,0
2004/2/2 12:45,0,0,0,0,0,0,0,0
2004/2/2 13:00,0.00001932,0,0,0,2.41,0,0,0
2004/2/2 13:15,0.00022701,0,0,0,27.72,0,0,0
2004/2/2 13:30,0,0,0,0,0,0,0,0
2004/2/2 13:45,0.00011753,0,0,0,14.37,0,0,0
2004/2/2 14:00,0.00008694,0,0,0,10.61,0,0,0
2004/2/2 14:15,0.00002254,0,0,0,2.67,0,0,0
2004/2/2 14:30,0.0002415,0,0,0,29.61,0,0,0
2004/2/2 14:45,0.00001449,0,0,0,1.84,0,0,0
2004/2/2 15:00,0.0000644,0,0,0,7.82,0,0,0
2004/2/2 15:15,0.00014007,0,0,0,17.09,0,0,0
2004/2/2 15:30,0,0,0,0,0,0,0,0
2004/2/2 15:45,0.00018515,0,0.00009338,0,22.69,0,11.51,0
2004/2/2 16:00,0.00004669,0,0.00001449,0,5.79,0,1.87,0
2004/2/2 16:15,0.00004508,0,0,0,5.55,0,0,0
2004/2/2 16:30,0.00023345,0,0,0,28.53,0,0,0
2004/2/2 16:45,0,0,0,0,0,0,0,0
2004/2/2 17:00,0,0,0.00008694,0,0,0,10.73,0
2004/2/2 17:15,0.0002254,0,0,0,27.53,0,0,0
2004/2/2 17:30,0.00006601,0,0,0,8.13,0,0,0
2004/2/2 17:45,0.0000322,0,0.00002576,0,3.95,0,3.17,0
2004/2/2 18:00,0.00014812,0,0,0,18.15,0,0,0
2004/2/2 18:15,0,0,0,0,0,0,0,0
2004/2/2 18:30,0.00000644,0,0,0,0.85,0,0,0
2004/2/2 18:45,0.00021252,0,0,0,26,0,0,0
2004/2/2 19:00,0.00001932,0,0.00048139,0,2.34,0,58.9,0
2004/2/2 19:15,0.00024794,0,0.00035742,0,30.39,0,43.7,0
2004/2/2 19:30,0.00026565,0,0,0,32.55,0,0,0
2004/2/2 19:45,0.00014651,0,0,0,17.89,0,0,0
2004/2/2 20:00,0,0,0,0,0,0,0,0
2004/2/2 20:15,0.00000805,0,0,0,1.02,0,0,0
2004/2/2 20:30,0.00021091,0,0.00010465,0,25.88,0,12.72,0
2004/2/2 20:45,0,0,0.00009499,0,0,0,11.58,0
2004/2/2 21:00,0.00004186,0,0,0,5.11,0,0,0
2004/2/2 21:15,0,0,0.00041538,0,0.02,0,50.89,0
2004/2/2 21:30,0,0,0.00013202,0,0,0,16.17,0
2004/2/2 21:45,0,0,0.00003381,0,0,0,4.16,0
2004/2/2 22:00,0,0,0,0,0,0,0,0
2004/2/2 22:15,0,0,0,0,0,0,0,0
2004/2/2 22:30,0,0,0,0,0,0,0,0
2004/2/2 22:45,0,0,0,0,0,0,0,0
2004/2/2 23:00,0,0,0,0,0,0,0,0
2004/2/2 23:15,0,0,0,0,0,0,0,0
2004/2/2 23:30,0,0,0,0,0,0,0,0
2004/2/2 23:45,0,0,0,0,0,0,0,0
2004/2/3 0:00,0,0,0,0,0,0,0,0
2004/2/3 0:15,0,0,0,0,0,0,0,0
2004/2/3 0:30,0,0,0,0,0,0,0,0
2004/2/3 0:45,0,0,0,0,0,0,0,0
2004/2/3 1:00,0,0,0,0,0,0,0,0
2004/2/3 1:15,0,0,0,0,0,0,0,0
2004/2/3 1:30,0,0,0,0,0,0,0,0
2004/2/3 1:45,0,0,0,0,0,0,0,0
2004/2/3 2:00,0,0,0,0,0,0,0,0
2004/2/3 2:15,0,0,0,0,0,0,0,0
2004/2/3 2:30,0,0,0,0,0,0,0,0
2004/2/3 2:45,0,0,0,0,0,0,0,0
2004/2/3 3:00,0,0,0,0,0,0,0,0
2004/2/3 3:15,0,0,0,0,0,0,0,0
2004/2/3 3:30,0,0,0,0,0,0,0,0
2004/2/3 3:45,0,0,0,0,0,0,0,0
2004/2/3 4:00,0,0,0,0,0,0,0,0
2004/2/3 4:15,0,0,0,0,0,0,0,0
2004/2/3 4:30,0.0000805,0,0,0,9.83,0,0,0
2004/2/3 4:45,0.0002737,0,0,0,33.42,0,0,0
2004/2/3 5:00,0.00026404,0,0,0,32.26,0,0,0
2004/2/3 5:15,0.00026565,0,0,0,32.55,0,0,0
2004/2/3 5:30,0.00026565,0,0,0,32.55,0,0,0
2004/2/3 5:45,0.00027048,0,0,0,33.11,0,0,0
2004/2/3 6:00,0.00025277,0,0,0,31.01,0,0,0
2004/2/3 6:15,0.00026082,0,0,0,31.91,0,0,0
2004/2/3 6:30,0.0002576,0,0,0,31.53,0,0,0
2004/2/3 6:45,0.00005313,0,0,0,6.57,0,0,0
2004/2/3 7:00,0.0000644,0,0,0,7.87,0,0,0
2004/2/3 7:15,0.00025599,0,0.00005957,0,31.41,0,7.28,0
2004/2/3 7:30,0,0,0.00042987,0,0,0,52.68,0
2004/2/3 7:45,0.00001932,0,0,0,2.34,0,0,0
2004/2/3 8:00,0.00005313,0,0,0,6.5,0,0,0
2004/2/3 8:15,0,0,0,0,0,0,0,0
2004/2/3 8:30,0,0,0,0,0,0,0,0
2004/2/3 8:45,0,0,0,0,0,0,0,0
2004/2/3 9:00,0,0,0,0,0,0,0,0
2004/2/3 9:15,0,0,0,0,0,0,0,0
2004/2/3 9:30,0,0,0,0,0,0,0,0
2004/2/3 9:45,0,0,0,0,0,0,0,0
2004/2/3 10:00,0.0000483,0,0,0,6,0,0,0
2004/2/3 10:15,0.00026887,0,0,0,32.92,0,0,0
2004/2/3 10:30,0.00026243,0,0.00008533,0,32.05,0,10.42,0
2004/2/3 10:45,0.00018998,0,0,0,23.19,0,0,0
2004/2/3 11:00,0,0,0,0,0,0,0,0
2004/2/3 11:15,0,0,0,0,0,0,0,0
2004/2/3 11:30,0,0,0,0,0,0,0,0
2004/2/3 11:45,0,0,0,0,0,0,0,0
2004/2/3 12:00,0,0,0,0,0,0,0,0
2004/2/3 12:15,0,0,0,0,0,0,0,0
2004/2/3 12:30,0,0,0,0,0,0,0,0
2004/2/3 12:45,0,0,0,0,0,0,0,0
2004/2/3 13:00,0,0,0,0,0,0,0,0
2004/2/3 13:15,0,0,0,0,0,0,0,0
2004/2/3 13:30,0.00004991,0,0.00006762,0,6.05,0,8.25,0
2004/2/3 13:45,0.00026404,0,0.00010465,0,32.38,0,12.79,0
2004/2/3 14:00,0.00026243,0,0.00005957,0,32.03,0,7.26,0
2004/2/3 14:15,0.00025921,0,0,0,31.74,0,0,0
2004/2/3 14:30,0.00026404,0,0,0,32.33,0,0,0
2004/2/3 14:45,0.0002576,0,0,0,31.55,0,0,0
2004/2/3 15:00,0.00025438,0,0,0,31.2,0,0,0
2004/2/3 15:15,0.00006762,0,0,0,8.34,0,0.05,0
2004/2/3 15:30,0.00008372,0,0.00042182,0,10.23,0,51.55,0
2004/2/3 15:45,0.00005796,0,0,0,7.16,0,0.07,0
2004/2/3 16:00,0.00023989,0,0,0,29.4,0,0,0
2004/2/3 16:15,0,0,0,0,0,0,0,0
2004/2/3 16:30,0.00015456,0,0,0,18.93,0,0,0
2004/2/3 16:45,0.00011753,0,0,0,14.32,0,0,0
2004/2/3 17:00,0,0,0,0,0,0,0,0
2004/2/3 17:15,0.00021413,0,0,0,26.12,0,0,0
2004/2/3 17:30,0.00009982,0,0,0,12.2,0,0,0
2004/2/3 17:45,0,0,0,0,0,0,0,0
2004/2/3 18:00,0.00019964,0,0.00000805,0,24.51,0,0.99,0
2004/2/3 18:15,0.00013041,0,0.00003059,0,15.93,0,3.73,0
2004/2/3 18:30,0.00008694,0,0.00004991,0,10.54,0,6.17,0
2004/2/3 18:45,0.00026082,0,0.0000483,0,31.88,0,5.81,0
2004/2/3 19:00,0.0000322,0,0.00000322,0,3.88,0,0.31,0
2004/2/3 19:15,0,0,0.00000805,0,0,0,1.06,0
2004/2/3 19:30,0.00006762,0,0.00002898,0,8.2,0,3.55,0
2004/2/3 19:45,0.00016261,0,0.0001771,0,19.92,0,21.6,0
2004/2/3 20:00,0,0,0.00047012,0,0,0,57.48,0
2004/2/3 20:15,0.0001288,0,0.00038318,0,15.72,0,46.94,0
2004/2/3 20:30,0.00026082,0,0.00020286,0,31.91,0,24.72,0
2004/2/3 20:45,0.0001771,0,0,0,21.63,0,0,0
2004/2/3 21:00,0,0,0,0,0,0,0,0
2004/2/3 21:15,0,0,0,0,0,0,0,0
2004/2/3 21:30,0,0,0,0,0,0,0,0
2004/2/3 21:45,0,0,0,0,0,0,0,0
2004/2/3 22:00,0,0,0,0,0,0,0,0
2004/2/3 22:15,0,0,0,0,0,0,0,0
2004/2/3 22:30,0,0,0,0,0,0,0,0
2004/2/3 22:45,0,0,0,0,0,0,0,0
2004/2/3 23:00,0,0,0,0,0,0,0,0
2004/2/3 23:15,0,0,0,0,0,0,0,0
2004/2/3 23:30,0,0,0,0,0,0,0,0
2004/2/3 23:45,0,0,0,0,0,0,0,0
2004/2/4 0:00,0,0,0,0,0,0,0,0
2004/2/4 0:15,0,0,0,0,0,0,0,0
2004/2/4 0:30,0,0,0,0,0,0,0,0
2004/2/4 0:45,0,0,0,0,0,0,0,0
2004/2/4 1:00,0,0,0,0,0,0,0,0
2004/2/4 1:15,0,0,0,0,0,0,0,0
2004/2/4 1:30,0,0,0,0,0,0,0,0
2004/2/4 1:45,0,0,0,0,0,0,0,0
2004/2/4 2:00,0,0,0,0,0,0,0,0
2004/2/4 2:15,0,0,0,0,0,0,0,0
2004/2/4 2:30,0,0,0,0,0,0,0,0
2004/2/4 2:45,0,0,0,0,0,0,0,0
2004/2/4 3:00,0,0,0,0,0,0,0,0
2004/2/4 3:15,0,0,0,0,0,0,0,0
2004/2/4 3:30,0,0,0,0,0,0,0,0
2004/2/4 3:45,0,0,0,0,0,0,0,0
2004/2/4 4:00,0,0,0,0,0,0,0,0
2004/2/4 4:15,0,0,0,0,0,0,0,0
2004/2/4 4:30,0.00007889,0,0,0,9.62,0,0,0
2004/2/4 4:45,0.00027209,0,0,0,33.37,0,0,0
2004/2/4 5:00,0.00025599,0,0,0,31.25,0,0,0
2004/2/4 5:15,0.00025599,0,0,0,31.22,0,0,0
2004/2/4 5:30,0.00025921,0,0,0,31.67,0,0,0
2004/2/4 5:45,0.00026243,0,0,0,32.19,0,0,0
2004/2/4 6:00,0.00026082,0,0,0,31.91,0,0,0
2004/2/4 6:15,0.00026082,0,0,0,31.84,0,0,0
2004/2/4 6:30,0.00026082,0,0.00012397,0,31.81,0,15.1,0
2004/2/4 6:45,0.00026404,0,0.00000966,0,32.38,0,1.21,0
2004/2/4 7:00,0.00026565,0,0,0,32.57,0,0,0
2004/2/4 7:15,0.00026887,0,0.00000161,0,32.92,0,0.24,0
2004/2/4 7:30,0.00025116,0,0.00047334,0,30.73,0,57.95,0
2004/2/4 7:45,0.00025599,0,0,0,31.36,0,0,0
2004/2/4 8:00,0.00007245,0,0,0,8.89,0,0,0
2004/2/4 8:15,0,0,0,0,0,0,0,0
2004/2/4 8:30,0,0,0,0,0,0,0,0
2004/2/4 8:45,0,0,0,0,0,0,0,0
2004/2/4 9:00,0,0,0.00000483,0,0,0,0.61,0
2004/2/4 9:15,0,0,0,0,0,0,0,0
2004/2/4 9:30,0,0,0,0,0,0,0,0
2004/2/4 9:45,0,0,0,0,0,0,0,0
2004/2/4 10:00,0,0,0,0,0,0,0,0
2004/2/4 10:15,0,0,0.00002093,0,0,0,2.48,0
2004/2/4 10:30,0,0,0.00004186,0,0,0,5.08,0
2004/2/4 10:45,0,0,0.00002415,0,0,0,2.91,0
2004/2/4 11:00,0.00008372,0,0,0,10.21,0,0,0
2004/2/4 11:15,0.00026243,0,0,0,32.05,0,0,0
2004/2/4 11:30,0.00026404,0,0.00005152,0,32.26,0,6.31,0
2004/2/4 11:45,0.00026726,0,0.00013524,0,32.64,0,16.47,0
2004/2/4 12:00,0.0002576,0,0.00002254,0,31.51,0,2.72,0
2004/2/4 12:15,0.00000161,0,0.00004508,0,0.12,0,5.55,0
2004/2/4 12:30,0.0002093,0,0,0,25.53,0,0,0
2004/2/4 12:45,0.00017549,0,0,0,21.56,0,0,0
2004/2/4 13:00,0,0,0,0,0,0,0,0
2004/2/4 13:15,0.00005635,0,0,0,6.83,0,0,0
2004/2/4 13:30,0.00025438,0,0,0,31.1,0,0,0
2004/2/4 13:45,0.00000161,0,0,0,0.14,0,0,0
2004/2/4 14:00,0.00013202,0,0,0,16.07,0,0,0
2004/2/4 14:15,0.00014007,0,0.00005957,0,17.14,0,7.33,0
2004/2/4 14:30,0,0,0.00004186,0,0,0,5.11,0
2004/2/4 14:45,0.0001932,0,0.00001771,0,23.71,0,2.22,0
2004/2/4 15:00,0.00010465,0,0,0,12.88,0,0,0
2004/2/4 15:15,0,0,0,0,0,0,0,0
2004/2/4 15:30,0,0,0,0,0,0,0,0
2004/2/4 15:45,0,0,0,0,0,0,0,0
2004/2/4 16:00,0,0,0,0,0,0,0,0
2004/2/4 16:15,0,0,0.00007889,0,0.02,0,9.57,0
2004/2/4 16:30,0.00008372,0,0.00000161,0,10.23,0,0.26,0
2004/2/4 16:45,0.00026243,0,0,0,32.19,0,0,0
2004/2/4 17:00,0.00027209,0,0,0,33.25,0,0,0
2004/2/4 17:15,0.00026404,0,0.00001288,0,32.21,0,1.56,0
2004/2/4 17:30,0.000161,0,0.00004186,0,19.78,0,5.15,0
2004/2/4 17:45,0.00001449,0,0.00064239,0,1.75,0,78.66,0
2004/2/4 18:00,0.00023828,0,0.00014651,0,29.12,0,17.84,0
2004/2/4 18:15,0.00026404,0,0.00000644,0,32.21,0,0.8,0
2004/2/4 18:30,0.0002576,0,0,0,31.6,0,0,0
2004/2/4 18:45,0.00024472,0,0.00001288,0,29.99,0,1.49,0
2004/2/4 19:00,0,0,0,0,0,0,0,0
2004/2/4 19:15,0.00009177,0,0,0,11.25,0,0,0
2004/2/4 19:30,0.00018998,0,0,0,23.33,0,0,0
2004/2/4 19:45,0,0,0,0,0,0,0,0
2004/2/4 20:00,0.00019642,0,0,0,23.97,0,0,0
2004/2/4 20:15,0.00011109,0,0.00033649,0,13.54,0,41.15,0
2004/2/4 20:30,0,0,0.00011109,0,0,0,13.59,0
2004/2/4 20:45,0.00008372,0,0.00048139,0,10.3,0,58.95,0
2004/2/4 21:00,0.00010626,0,0.00013685,0,13.05,0,16.76,0
2004/2/4 21:15,0,0,0,0,0,0,0,0
2004/2/4 21:30,0,0,0,0,0,0,0,0
2004/2/4 21:45,0,0,0,0,0,0,0,0
2004/2/4 22:00,0,0,0,0,0,0,0,0
2004/2/4 22:15,0,0,0,0,0,0,0,0
2004/2/4 22:30,0,0,0,0,0,0,0,0
2004/2/4 22:45,0,0,0,0,0,0,0,0
2004/2/4 23:00,0,0,0,0,0,0,0,0
2004/2/4 23:15,0,0,0,0,0,0,0,0
2004/2/4 23:30,0,0,0,0,0,0,0,0
2004/2/4 23:45,0,0,0,0,0,0,0,0
2004/2/5 0:00,0,0,0,0,0,0,0,0
2004/2/5 0:15,0,0,0,0,0,0,0,0
2004/2/5 0:30,0,0,0,0,0,0,0,0
2004/2/5 0:45,0,0,0,0,0,0,0,0
2004/2/5 1:00,0,0,0,0,0,0,0,0
2004/2/5 1:15,0,0,0,0,0,0,0,0
2004/2/5 1:30,0,0,0,0,0,0,0,0
2004/2/5 1:45,0,0,0,0,0,0,0,0
2004/2/5 2:00,0,0,0,0,0,0,0,0
2004/2/5 2:15,0,0,0,0,0,0,0,0
2004/2/5 2:30,0,0,0,0,0,0,0,0
2004/2/5 2:45,0,0,0,0,0,0,0,0
2004/2/5 3:00,0,0,0,0,0,0,0,0
2004/2/5 3:15,0,0,0,0,0,0,0,0
2004/2/5 3:30,0,0,0,0,0,0,0,0
2004/2/5 3:45,0,0,0,0,0,0,0,0
2004/2/5 4:00,0,0,0,0,0,0,0,0
2004/2/5 4:15,0,0,0,0,0,0,0,0
2004/2/5 4:30,0.00007567,0,0,0,9.26,0,0,0
2004/2/5 4:45,0.00026404,0,0,0,32.24,0,0,0
2004/2/5 5:00,0.00026082,0,0,0,31.84,0,0,0
2004/2/5 5:15,0.00026404,0,0,0,32.26,0,0,0
2004/2/5 5:30,0.00026726,0,0,0,32.62,0,0,0
2004/2/5 5:45,0.0002576,0,0,0,31.58,0,0,0
2004/2/5 6:00,0.00025599,0,0,0,31.36,0,0,0
2004/2/5 6:15,0.00026565,0,0.0000161,0,32.5,0,1.96,0
2004/2/5 6:30,0.00026404,0,0.00000161,0,32.33,0,0.26,0
2004/2/5 6:45,0.00025438,0,0.00032361,0,31.17,0,39.68,0
2004/2/5 7:00,0.00025921,0,0.00002254,0,31.72,0,2.72,0
2004/2/5 7:15,0.00025921,0,0,0,31.67,0,0,0
2004/2/5 7:30,0.0002576,0,0.00001771,0,31.46,0,2.17,0
2004/2/5 7:45,0.00024794,0,0,0,30.37,0,0,0
2004/2/5 8:00,0,0,0.00017066,0,0,0,20.94,0
2004/2/5 8:15,0,0,0,0,0,0,0.05,0
2004/2/5 8:30,0,0,0,0,0,0,0,0
2004/2/5 8:45,0,0,0,0,0,0,0,0
2004/2/5 9:00,0,0,0,0,0,0,0,0
2004/2/5 9:15,0,0,0,0,0,0,0,0
2004/2/5 9:30,0,0,0,0,0,0,0,0
2004/2/5 9:45,0,0,0,0,0,0,0,0
2004/2/5 10:00,0,0,0,0,0,0,0,0
2004/2/5 10:15,0,0,0,0,0,0,0,0
2004/2/5 10:30,0,0,0,0,0,0,0,0
2004/2/5 10:45,0,0,0,0,0,0,0,0
2004/2/5 11:00,0,0,0,0,0,0,0,0
2004/2/5 11:15,0,0,0,0,0,0,0,0
2004/2/5 11:30,0,0,0,0,0,0,0,0
2004/2/5 11:45,0,0,0,0,0,0,0,0
2004/2/5 12:00,0,0,0,0,0,0,0,0
2004/2/5 12:15,0,0,0,0,0,0,0,0
2004/2/5 12:30,0.0000805,0,0,0,9.81,0,0,0
2004/2/5 12:45,0.00026404,0,0,0,32.38,0,0,0
2004/2/5 13:00,0.00026404,0,0,0,32.26,0,0,0
2004/2/5 13:15,0.00026082,0,0,0,32,0,0,0
2004/2/5 13:30,0.00026404,0,0,0,32.36,0,0,0
2004/2/5 13:45,0.00025438,0,0,0,31.17,0,0,0
2004/2/5 14:00,0.00025921,0,0,0,31.79,0,0,0
2004/2/5 14:15,0.00026726,0,0,0,32.73,0,0,0
2004/2/5 14:30,0.00025599,0,0,0,31.22,0,0,0
2004/2/5 14:45,0.00026082,0,0,0,31.98,0,0,0
2004/2/5 15:00,0.00026565,0,0,0,32.5,0,0,0
2004/2/5 15:15,0.00003703,0,0,0,4.54,0,0,0
2004/2/5 15:30,0.00016422,0,0,0,20,0,0,0
2004/2/5 15:45,0.00026726,0,0,0,32.64,0,0,0
2004/2/5 16:00,0.00007084,0,0,0,8.6,0,0,0
2004/2/5 16:15,0.00020125,0,0.00011753,0,24.63,0,14.46,0
2004/2/5 16:30,0.00014329,0,0.00004347,0,17.47,0,5.27,0
2004/2/5 16:45,0.00003381,0,0.00001771,0,4.21,0,2.25,0
2004/2/5 17:00,0.00025921,0,0,0,31.65,0,0,0
2004/2/5 17:15,0.0001449,0,0,0,17.63,0,0,0
2004/2/5 17:30,0,0,0,0,0,0,0,0
2004/2/5 17:45,0.00020608,0,0,0,25.15,0,0,0
2004/2/5 18:00,0.00026082,0,0.00003381,0,31.84,0,4.21,0
2004/2/5 18:15,0.00026726,0,0.0000322,0,32.66,0,4.02,0
2004/2/5 18:30,0.00025599,0,0.00000483,0,31.36,0,0.69,0
2004/2/5 18:45,0.00019642,0,0,0,23.99,0,0,0
2004/2/5 19:00,0,0,0,0,0,0,0,0
2004/2/5 19:15,0.0001771,0,0,0,21.72,0,0,0
2004/2/5 19:30,0.00020608,0,0,0,25.12,0,0,0
2004/2/5 19:45,0,0,0.00104972,0,0,0,128.46,0
2004/2/5 20:00,0.00014329,0,0,0,17.61,0,0,0
2004/2/5 20:15,0.00018837,0,0.00009016,0,23.09,0,10.94,0
2004/2/5 20:30,0,0,0.00014812,0,0,0,18.06,0
2004/2/5 20:45,0.00012075,0,0.00038801,0,14.77,0,47.51,0
2004/2/5 21:00,0.00001932,0,0.00008855,0,2.39,0,10.8,0
2004/2/5 21:15,0,0,0,0,0,0,0,0
2004/2/5 21:30,0,0,0,0,0,0,0,0
2004/2/5 21:45,0,0,0,0,0,0,0,0
2004/2/5 22:00,0,0,0,0,0,0,0,0
2004/2/5 22:15,0,0,0,0,0,0,0,0
2004/2/5 22:30,0,0,0,0,0,0,0,0
2004/2/5 22:45,0,0,0,0,0,0,0,0
2004/2/5 23:00,0,0,0,0,0,0,0,0
2004/2/5 23:15,0,0,0,0,0,0,0,0
2004/2/5 23:30,0,0,0,0,0,0,0,0
2004/2/5 23:45,0,0,0,0,0,0,0,0
2004/2/6 0:00,0,0,0,0,0,0,0,0
2004/2/6 0:15,0,0,0,0,0,0,0,0
2004/2/6 0:30,0,0,0,0,0,0,0,0
2004/2/6 0:45,0,0,0,0,0,0,0,0
2004/2/6 1:00,0,0,0,0,0,0,0,0
2004/2/6 1:15,0,0,0,0,0,0,0,0
2004/2/6 1:30,0,0,0,0,0,0,0,0
2004/2/6 1:45,0,0,0,0,0,0,0,0
2004/2/6 2:00,0,0,0,0,0,0,0,0
2004/2/6 2:15,0,0,0,0,0,0,0,0
2004/2/6 2:30,0,0,0,0,0,0,0,0
2004/2/6 2:45,0,0,0,0,0,0,0,0
2004/2/6 3:00,0,0,0,0,0,0,0,0
2004/2/6 3:15,0,0,0,0,0,0,0,0
2004/2/6 3:30,0,0,0,0,0,0,0,0
2004/2/6 3:45,0,0,0,0,0,0,0,0
2004/2/6 4:00,0,0,0,0,0,0,0,0
2004/2/6 4:15,0,0,0,0,0,0,0,0
2004/2/6 4:30,0.00007406,0,0,0,9.1,0,0,0
2004/2/6 4:45,0.00026404,0,0,0,32.33,0,0,0
2004/2/6 5:00,0.00026565,0,0,0,32.43,0,0,0
2004/2/6 5:15,0.00025921,0,0,0,31.65,0,0,0
2004/2/6 5:30,0.00027048,0,0,0,33.16,0,0,0
2004/2/6 5:45,0.00026082,0,0,0,31.86,0,0,0
2004/2/6 6:00,0.00026404,0,0,0,32.29,0,0,0
2004/2/6 6:15,0.00025438,0,0,0,31.2,0,0,0
2004/2/6 6:30,0.00026726,0,0,0,32.69,0,0,0
2004/2/6 6:45,0.00024955,0,0,0,30.56,0,0,0
2004/2/6 7:00,0.00024472,0,0,0,30.02,0,0,0
2004/2/6 7:15,0.00026082,0,0,0,32,0,0,0
2004/2/6 7:30,0.00025921,0,0.00022862,0,31.72,0,27.96,0
2004/2/6 7:45,0.00026565,0,0.00004186,0,32.5,0,5.2,0
2004/2/6 8:00,0.00007245,0,0.00000644,0,8.96,0,0.71,0
2004/2/6 8:15,0,0,0,0,0,0,0,0
2004/2/6 8:30,0.00017549,0,0.00001449,0,21.53,0,1.87,0
2004/2/6 8:45,0.00003703,0,0.00009821,0,4.47,0,12.03,0
2004/2/6 9:00,0,0,0,0,0,0,0,0
2004/2/6 9:15,0,0,0,0,0,0,0,0
2004/2/6 9:30,0,0,0.00002415,0,0,0,2.95,0
2004/2/6 9:45,0,0,0,0,0,0,0,0
2004/2/6 10:00,0,0,0.00006279,0,0,0,7.59,0
2004/2/6 10:15,0,0,0,0,0,0,0,0
2004/2/6 10:30,0,0,0,0,0,0,0,0
2004/2/6 10:45,0,0,0,0,0,0,0,0
2004/2/6 11:00,0,0,0,0,0,0,0,0
2004/2/6 11:15,0,0,0.00013041,0,0,0,15.88,0
2004/2/6 11:30,0,0,0.00000322,0,0,0,0.33,0
2004/2/6 11:45,0,0,0,0,0,0,0,0
2004/2/6 12:00,0,0,0,0,0,0,0,0
2004/2/6 12:15,0,0,0,0,0,0,0,0
2004/2/6 12:30,0,0,0,0,0,0,0,0
2004/2/6 12:45,0,0,0,0,0,0,0,0
2004/2/6 13:00,0,0,0,0,0,0,0,0
2004/2/6 13:15,0,0,0,0,0,0,0,0
2004/2/6 13:30,0,0,0.00012558,0,0.02,0,15.36,0
2004/2/6 13:45,0.00014651,0,0,0,17.96,0,0,0
2004/2/6 14:00,0.00026565,0,0,0,32.59,0,0,0
2004/2/6 14:15,0.00026404,0,0,0,32.33,0,0,0
2004/2/6 14:30,0.00026404,0,0,0,32.33,0,0,0
2004/2/6 14:45,0.00020286,0,0,0,24.75,0,0,0
2004/2/6 15:00,0,0,0,0,0,0,0,0
2004/2/6 15:15,0.00010304,0,0,0,12.55,0,0,0
2004/2/6 15:30,0.0001449,0,0.00042987,0,17.66,0,52.49,0
2004/2/6 15:45,0.0000483,0,0,0,6,0,0,0
2004/2/6 16:00,0.00025599,0,0,0,31.32,0,0,0
2004/2/6 16:15,0.00000322,0,0,0,0.38,0,0,0
2004/2/6 16:30,0.00011753,0,0,0,14.39,0,0,0
2004/2/6 16:45,0.00025116,0,0,0,30.8,0,0,0
2004/2/6 17:00,0,0,0,0,0,0,0,0
2004/2/6 17:15,0.00010787,0,0,0,13.21,0,0,0
2004/2/6 17:30,0.00025921,0,0,0,31.77,0,0,0
2004/2/6 17:45,0.00000322,0,0,0,0.45,0,0,0
2004/2/6 18:00,0.00011109,0,0,0,13.52,0,0,0
2004/2/6 18:15,0.0002737,0,0,0,33.54,0,0,0
2004/2/6 18:30,0.0002737,0,0,0,33.4,0,0,0
2004/2/6 18:45,0.00026243,0,0.00005796,0,32.07,0,7.14,0
2004/2/6 19:00,0.0002415,0,0,0,29.5,0,0,0
2004/2/6 19:15,0,0,0,0,0,0,0,0
2004/2/6 19:30,0.00012719,0,0,0,15.48,0,0,0
2004/2/6 19:45,0.00022701,0,0,0,27.84,0,0,0
2004/2/6 20:00,0,0,0,0,0,0,0,0
2004/2/6 20:15,0.00018515,0,0,0,22.57,0,0,0
2004/2/6 20:30,0.000161,0,0.00065205,0,19.78,0,79.84,0
2004/2/6 20:45,0,0,0.00029785,0,0,0,36.49,0
2004/2/6 21:00,0.00003703,0,0.00042826,0,4.61,0,52.33,0
2004/2/6 21:15,0,0,0.00004669,0,0,0,5.67,0
2004/2/6 21:30,0,0,0,0,0,0,0,0
2004/2/6 21:45,0,0,0,0,0,0,0,0
2004/2/6 22:00,0,0,0,0,0,0,0,0
2004/2/6 22:15,0,0,0,0,0,0,0,0
2004/2/6 22:30,0,0,0,0,0,0,0,0
2004/2/6 22:45,0,0,0,0,0,0,0,0
2004/2/6 23:00,0,0,0,0,0,0,0,0
2004/2/6 23:15,0,0,0,0,0,0,0,0
2004/2/6 23:30,0,0,0,0,0,0,0,0
2004/2/6 23:45,0,0,0,0,0,0,0,0
2004/2/7 0:00,0,0,0,0,0,0,0,0
2004/2/7 0:15,0,0,0,0,0,0,0,0
2004/2/7 0:30,0,0,0,0,0,0,0,0
2004/2/7 0:45,0,0,0,0,0,0,0,0
2004/2/7 1:00,0,0,0,0,0,0,0,0
2004/2/7 1:15,0,0,0,0,0,0,0,0
2004/2/7 1:30,0,0,0,0,0,0,0,0
2004/2/7 1:45,0,0,0,0,0,0,0,0
2004/2/7 2:00,0,0,0,0,0,0,0,0
2004/2/7 2:15,0,0,0,0,0,0,0,0
2004/2/7 2:30,0,0,0,0,0,0,0,0
2004/2/7 2:45,0,0,0,0,0,0,0,0
2004/2/7 3:00,0,0,0,0,0,0,0,0
2004/2/7 3:15,0,0,0,0,0,0,0,0
2004/2/7 3:30,0,0,0,0,0,0,0,0
2004/2/7 3:45,0,0,0,0,0,0,0,0
2004/2/7 4:00,0,0,0,0,0,0,0,0
2004/2/7 4:15,0,0,0,0,0,0,0,0
2004/2/7 4:30,0.00007728,0,0,0,9.41,0,0,0
2004/2/7 4:45,0.00026243,0,0,0,32.03,0,0,0
2004/2/7 5:00,0.00026887,0,0,0,32.9,0,0,0
2004/2/7 5:15,0.00026565,0,0,0,32.59,0,0,0
2004/2/7 5:30,0.00025921,0,0,0,31.67,0,0,0
2004/2/7 5:45,0.0002576,0,0,0,31.53,0,0,0
2004/2/7 6:00,0.00026404,0,0,0,32.21,0,0,0
2004/2/7 6:15,0.00026243,0,0,0,32.19,0,0,0
2004/2/7 6:30,0.00025921,0,0,0,31.65,0,0,0
2004/2/7 6:45,0.00026726,0,0,0,32.71,0,0,0
2004/2/7 7:00,0.0002576,0,0,0,31.51,0,0,0
2004/2/7 7:15,0.00026082,0,0,0,31.91,0,0,0